Change the Weather History Date:

Friday, October 12, 2012

  Actual Average Record
Temperature  
Mean Temperature 30 °F -  
Max Temperature 41 °F 43 °F 53 °F (1969)
Min Temperature 19 °F 31 °F 12 °F (1997)
Degree Days  
Heating Degree Days 35    
Moisture  
Dew Point 22 °F    
Average Humidity 78    
Maximum Humidity 100    
Minimum Humidity 42    
Precipitation  
Precipitation 0.00 in - - ()
Sea Level Pressure  
Sea Level Pressure 29.27 in    
Wind  
Wind Speed 2 mph (ENE)    
Max Wind Speed 8 mph    
Max Gust Speed -    
Visibility 10 miles    
Events      
Averages and records for this station are not official NWS values.
T = Trace of Precipitation, MM = Missing Value Source: NWS Daily Summary

Daily Weather History Graph

Daily Weather History Graph

Search for Another Location

Airport or City:

Trip Planner

Search our weather history database for the weather conditions in past years. The results will help you decide how hot, cold, wet, or windy it might be!

Date:

Astronomy

Oct. 12, 2012 Rise Set
Actual Time 8:38 AM AKDT 7:00 PM AKDT
Civil Twilight 7:56 AM AKDT 7:43 PM AKDT
Nautical Twilight 7:07 AM AKDT 8:31 PM AKDT
Astronomical Twilight 6:17 AM AKDT 9:21 PM AKDT
Moon 4:53 AM AKDT (10/12) 5:45 PM AKDT (10/12)
Length of Visible Light 11h 47m
Length of Day
10h 21m
Waning Crescent, 10% of the Moon is Illuminated
Oct 12
Waning Crescent
Oct 15
New
Oct 21
First Quarter
Oct 29
Full
Nov 6
Last Quarter

Hourly Weather History & Observations

Time (AKDT) Temp. Windchill Dew Point Humidity Pressure Visibility Wind Dir Wind Speed Gust Speed Precip Events Conditions
12:16 AM 26.6 °F - 24.8 °F 93% 29.54 in - Calm Calm - N/A   Unknown
12:36 AM 26.6 °F - 26.6 °F 100% 29.53 in - Calm Calm - N/A   Unknown
12:56 AM 26.6 °F - 24.8 °F 93% 29.52 in 10.0 mi Calm Calm - N/A   Clear
1:16 AM 26.6 °F - 23.0 °F 86% 29.52 in - Calm Calm - N/A   Unknown
1:36 AM 24.8 °F - 23.0 °F 93% 29.51 in - Calm Calm - N/A   Unknown
1:56 AM 23.0 °F - 21.2 °F 93% 29.50 in - Calm Calm - N/A   Unknown
2:16 AM 23.0 °F - 21.2 °F 93% 29.49 in 10.0 mi Calm Calm - N/A   Clear
2:36 AM 24.8 °F - 21.2 °F 86% 29.49 in 9.0 mi Calm Calm - N/A   Partly Cloudy
2:56 AM 23.0 °F 17.0 °F 21.2 °F 93% 29.47 in 0.2 mi East 4.6 mph - N/A   Mostly Cloudy
3:16 AM 24.8 °F - 23.0 °F 93% 29.47 in 1.0 mi Calm Calm - N/A   Mostly Cloudy
3:56 AM 24.8 °F 20.5 °F 23.0 °F 93% 29.46 in 10.0 mi East 3.5 mph - N/A   Clear
4:36 AM 23.0 °F 17.0 °F 21.2 °F 93% 29.43 in 10.0 mi East 4.6 mph - N/A   Clear
4:56 AM 23.0 °F - 21.2 °F 93% 29.43 in 10.0 mi Calm Calm - N/A   Clear
5:16 AM 21.2 °F 16.4 °F 19.4 °F 93% 29.41 in 10.0 mi East 3.5 mph - N/A   Clear
5:36 AM 23.0 °F 17.0 °F 21.2 °F 93% 29.40 in 10.0 mi East 4.6 mph - N/A   Clear
5:56 AM 21.2 °F 16.4 °F 19.4 °F 93% 29.40 in 10.0 mi East 3.5 mph - N/A   Clear
6:16 AM 21.2 °F 14.9 °F 19.4 °F 93% 29.39 in 10.0 mi East 4.6 mph - N/A   Clear
6:36 AM 21.2 °F 16.4 °F 19.4 °F 93% 29.38 in 10.0 mi East 3.5 mph - N/A   Clear
6:56 AM 21.2 °F 16.4 °F 19.4 °F 93% 29.38 in 10.0 mi East 3.5 mph - N/A   Clear
7:16 AM 21.2 °F 16.4 °F 19.4 °F 93% 29.37 in 10.0 mi East 3.5 mph - N/A   Clear
7:36 AM 19.4 °F 14.3 °F 17.6 °F 93% 29.36 in 10.0 mi East 3.5 mph - N/A   Clear
7:56 AM 21.2 °F 14.9 °F 17.6 °F 86% 29.35 in 10.0 mi East 4.6 mph - N/A   Clear
8:16 AM 21.2 °F 16.4 °F 19.4 °F 93% 29.35 in 10.0 mi ENE 3.5 mph - N/A   Clear
8:36 AM 21.2 °F - 19.4 °F 93% 29.34 in 9.0 mi Calm Calm - N/A   Clear
8:56 AM 19.4 °F - 15.8 °F 86% 29.33 in - Calm Calm - N/A   Unknown
9:16 AM 19.4 °F 14.3 °F 17.6 °F 93% 29.33 in 10.0 mi ESE 3.5 mph - N/A   Clear
9:36 AM 21.2 °F 16.4 °F 21.2 °F 100% 29.32 in 10.0 mi ENE 3.5 mph - N/A   Clear
9:56 AM 21.2 °F - 21.2 °F 100% 29.31 in 10.0 mi Calm Calm - N/A   Clear
11:16 AM 26.6 °F - 24.8 °F 93% 29.29 in - Calm Calm - N/A   Unknown
11:36 AM 28.4 °F - 26.6 °F 93% 29.29 in 10.0 mi Calm Calm - N/A   Clear
11:56 AM 30.2 °F - 26.6 °F 86% 29.28 in - Calm Calm - N/A   Unknown
12:16 PM 32.0 °F - 28.4 °F 87% 29.27 in - Calm Calm - N/A   Unknown
12:56 PM 35.6 °F - 28.4 °F 75% 29.25 in 10.0 mi Calm Calm - N/A   Clear
1:16 PM 35.6 °F - 28.4 °F 75% 29.24 in 10.0 mi Calm Calm - N/A   Clear
1:36 PM 37.4 °F 32.1 °F 24.8 °F 60% 29.23 in 10.0 mi ENE 6.9 mph - N/A   Clear
1:56 PM 37.4 °F 31.4 °F 23.0 °F 56% 29.22 in 10.0 mi ENE 8.1 mph - N/A   Clear
2:16 PM 39.2 °F 37.0 °F 23.0 °F 52% 29.21 in 10.0 mi ENE 3.5 mph - N/A   Clear
2:36 PM 39.2 °F 35.9 °F 23.0 °F 52% 29.21 in 10.0 mi NNE 4.6 mph - N/A   Clear
2:56 PM 39.2 °F 35.9 °F 21.2 °F 49% 29.20 in 10.0 mi ENE 4.6 mph - N/A   Clear
3:16 PM 39.2 °F 35.0 °F 23.0 °F 52% 29.19 in 10.0 mi NE 5.8 mph - N/A   Clear
3:36 PM 41.0 °F 38.0 °F 24.8 °F 53% 29.18 in 10.0 mi NE 4.6 mph - N/A   Clear
3:56 PM 41.0 °F 37.1 °F 21.2 °F 45% 29.17 in 10.0 mi ENE 5.8 mph - N/A   Clear
4:16 PM 41.0 °F 36.4 °F 21.2 °F 45% 29.16 in 10.0 mi ENE 6.9 mph - N/A   Clear
4:36 PM 41.0 °F 35.8 °F 21.2 °F 45% 29.15 in 10.0 mi NNE 8.1 mph - N/A   Clear
4:56 PM 41.0 °F 36.4 °F 21.2 °F 45% 29.15 in 10.0 mi NE 6.9 mph - N/A   Clear
5:16 PM 41.0 °F 37.1 °F 19.4 °F 42% 29.14 in 10.0 mi East 5.8 mph - N/A   Clear
5:36 PM 41.0 °F 37.1 °F 19.4 °F 42% 29.14 in 10.0 mi ENE 5.8 mph - N/A   Clear
5:56 PM 41.0 °F 37.1 °F 19.4 °F 42% 29.13 in 10.0 mi East 5.8 mph - N/A   Clear
6:16 PM 39.2 °F 35.9 °F 21.2 °F 49% 29.13 in 10.0 mi East 4.6 mph - N/A   Clear
6:36 PM 39.2 °F - 19.4 °F 45% 29.13 in 8.0 mi Calm Calm - N/A   Clear
6:56 PM 35.6 °F - 19.4 °F 52% 29.12 in 10.0 mi Calm Calm - N/A   Clear
7:16 PM 30.2 °F - 19.4 °F 64% 29.12 in - Calm Calm - N/A   Clear
7:36 PM 30.2 °F - 21.2 °F 69% 29.12 in - Calm Calm - N/A   Clear
7:56 PM 28.4 °F - 21.2 °F 74% 29.12 in - Calm Calm - N/A   Clear
8:16 PM 28.4 °F - 21.2 °F 74% 29.12 in - Calm Calm - N/A   Clear
8:36 PM 26.6 °F - 21.2 °F 80% 29.11 in - Calm Calm - N/A   Clear
8:56 PM 26.6 °F - 21.2 °F 80% 29.11 in - Calm Calm - N/A   Clear
9:16 PM 26.6 °F - 21.2 °F 80% 29.11 in 10.0 mi Calm Calm - N/A   Clear
9:56 PM 24.8 °F - 19.4 °F 80% 29.11 in - Calm Calm - N/A   Clear
10:16 PM 24.8 °F - 19.4 °F 80% 29.10 in - Calm Calm - N/A   Clear
10:36 PM 24.8 °F - 21.2 °F 86% 29.10 in - Calm Calm - N/A   Unknown
10:56 PM 24.8 °F - 19.4 °F 80% 29.11 in - Calm Calm - N/A   Clear
11:16 PM 24.8 °F - 21.2 °F 86% 29.10 in - Calm Calm - N/A   Unknown
11:36 PM 24.8 °F - 21.2 °F 86% 29.10 in - Calm Calm - N/A   Unknown
11:56 PM 21.2 °F - 19.4 °F 93% 29.10 in - Calm Calm - N/A   Unknown